Погода в Лебяжьем

Россия / Санкт-Петербург и Ленинградская область     59°57′30″N   29°25′02″E
темп.,
°C
ветер,
м/с
пор.,
м/с
влажн.,
%
обл.,
%
осадки,
мм/ч
давл.,
гПа
погр.,
м
6 августа, пт
пт600:00+16всв456317 0.0 1016303
03:00+14св45705 0.0 1015212
06:00+14св457357 0.0 1015231
09:00+16всв467114 0.0 1015305
12:00+19всв796019 0.0 10151494
15:00+18всв1011646 0.0 10141514
18:00+17всв10147086 0.0 10131237
21:00+16всв101375100 0.0 10131055
7 августа, сб
сб700:00+15всв9128496 0.0 1012735
03:00+15всв101387100 0.0 1011598
06:00+15всв111488100 0.1 1010646
09:00+15всв101491100 0.1 1009669
12:00+16всв111593100 1.8 1008712
15:00+16в101393100 3.6 1007761
18:00+16в81396100 4.9 1006673
21:00+17в71097100 8.0 1006490
8 августа, вс
вс800:00+17вюв5798100 0.3 1006283
03:00+17вюв4596100 0.5 1007248
06:00+17юв469584 0.3 1007318
09:00+17ююз458642 0.3 1009478
12:00+19юз017733 0.4 1010371
15:00+18ююз348542 1.8 1012294
18:00+20в127714 0.1 1012256
21:00+19в2282100 0.2 101327
9 августа, пн
пн900:00+17юв3488100 0.0 101399
03:00+17ююв358992 0.0 1013123
06:00+17юв4788100 0.0 1013184
09:00+18вюв488599 0.1 1012303
12:00+21ююв3473100 0.1 1012383
15:00+21юз468123 0.7 1013361
18:00+21ююз577731 0.3 1013304
21:00+19юз599019 0.7 1014344
10 августа, вт
вт1000:00+17юз479411 0.3 1016266
03:00+16ююз47906 0.3 1016197
06:00+16юз588916 0.0 1016221
09:00+18юз467865 0.0 1017461
12:00+20з4573100 0.0 1018515
15:00+18сз4480100 0.1 1018233
18:00+19зсз2276100 0.0 1018154
21:00+19св1179100 0.0 101711